{"data":{"norad_id":42818,"intl_designator":"2017-041A","name":"INTELSAT 35E (IS-35E)","alt_names":[],"object_type":"PAYLOAD","status":"ACTIVE","operator":null,"country":"ITSO","launch_date":"2017-07-05","launch_site_code":"AFETR","launch_vehicle":null,"mission":null,"orbit_class":"UNKNOWN","rcs_meters":null,"size_class":null,"mass_kg":null,"dimensions":null,"purposes":["comms"],"wikipedia_slug":null,"has_3d_model":false,"image_url":null,"decayed_at":null,"tle_current":{"epoch":"2026-05-25T04:54:50.392224Z","epoch_age_seconds":64203,"freshness":"FRESH","line1":"1 42818U 17041A   26145.20474991 -.00000240  00000+0  00000+0 0  9995","line2":"2 42818   0.0178 315.8466 0002196 105.3322 220.8387  1.00272487 32587","mean_motion":1.00272487,"eccentricity":0.0002196,"inclination_deg":0.0178,"raan_deg":315.8466,"arg_perigee_deg":105.3322,"mean_anomaly_deg":220.8387,"bstar":0,"rev_number":3258,"period_min":1436.086850025,"perigee_km":35777.138834333,"apogee_km":35795.657498178,"semimajor_km":42164.535166255,"source":"CELESTRAK","updated_at":"2026-05-25T13:38:14.335896Z"}}}